TIMESTAMP,CO2_1_1_1,H2O_1_1_1,TAU_1_1_1,TAU_SSITC_TEST_1_1_1,H_1_1_1,H_SSITC_TEST_1_1_1,LE_1_1_1,LE_SSITC_TEST_1_1_1,FC_1_1_1,FC_SSITC_TEST_1_1_1,WD_0_0_1,WS_0_0_1,WS_MAX_0_0_1,U_SIGMA_0_0_1,V_SIGMA_0_0_1,W_SIGMA_0_0_1,USTAR_0_0_1,MO_LENGTH_0_0_1,ZL_0_0_1,FETCH_MAX_0_0_1,FETCH_70_0_0_1,FETCH_80_0_0_1,FETCH_90_0_0_1,PA_0_0_1,RH_0_0_1,TA_0_0_1,VPD_0_0_1,T_SONIC_0_0_1,T_SONIC_SIGMA_0_0_1
[yyyymmddHHMMSS],[mmolCO2 mol-1],[mmolH2O mol-1],[kg m-1 s-2],[#],[W m-2],[#],[W m-2],[#],[umolCO2 m-2 s-1],[#],[Decimal degrees],[m s-1],[m s-1],[m s-1],[m s-1],[m s-1],[m s-1],[m],[#],[m],[m],[m],[m],[kPa],[%],[deg C],[hPa],[deg C],[deg C]
20220613003000,403.98379492664696,10.848566092616771,1.3878879142875996E-002,0,-8.2928562966589947,0,8.2336142327193595,0,-1.0266791807525659,0,152.99149563772585,1.5934374224824193,3.6084305514090427,0.39327160145258744,0.32039121655969877,0.20460521117722430,0.11187188724949404,14.021532765099586,1.3550587028040264,289.54050211362244,2659.0000000000000,4869.0000000000000,-9999.,93.327826710840256,46.686896551724139,18.842068965517228,11.564821387083708,19.033950768865168,0.24291098765862240
20220613010000,407.18569050268644,12.101536726823266,1.8514105712177920E-002,0,-12.928461137136544,0,24.501872586450677,0,0.93066807798446005,0,135.55380418582666,1.6589562710984112,2.9784917716372448,0.42620386494078460,0.24928510949609523,0.18294355478177843,0.12904668844077183,13.809504285698297,1.3758640141541647,237.71713204179088,2117.0000000000000,3842.0000000000000,-9999.,93.347214630642370,54.817666666666668,18.027666666666676,9.3133618249886734,18.385995773315472,0.22945447767725505
20220613013000,408.35543303903125,12.690954778622224,1.5289995317041160E-002,0,-15.013403876588852,0,26.956125668290781,0,1.6214897147583056,0,132.63015306244557,1.8221889479590263,3.0903245550973839,0.37975348540393550,0.25545396526414260,0.17724714405382780,0.11718289643974346,8.9063988988832516,2.1332976678579216,341.54412803782651,2937.0000000000000,5280.0000000000000,-9999.,93.366873509331597,59.162666666666667,17.574999999999989,8.1811287276815889,18.014219053480360,0.25446445197874118
20220613020000,411.77756604371382,13.261579340199175,4.0570413192130610E-002,0,-32.637774011803614,0,47.159998405229281,1,4.5437385077617067,1,127.61148749436187,2.0812391164092698,3.5389617334275223,0.51255867991157023,0.44687775966905080,0.23238124990405953,0.19059571034836070,17.629468770529400,1.0777409261339554,173.50102565864199,1540.0000000000000,2793.0000000000000,7384.0000000000000,93.366331437500008,65.599000000000004,16.638666666666666,6.4949508688898048,17.172994479709246,0.34217264439649930
20220613023000,414.32021070541538,13.171960110210268,4.1916674500915095E-002,0,-9.0731547432269295,2,-1.9580072645911246,2,-0.57409425762845023,2,136.31814782620606,2.1254477266849219,4.4834575873032563,0.59664414513978048,0.50098784110001571,0.30435917409345203,0.19347830243701025,66.353862080184484,0.28634354360624392,158.52499101727778,1472.0000000000000,2704.0000000000000,7310.0000000000000,93.402371306857631,67.883666666666670,16.000999999999976,5.8221776518018240,16.510027980380585,0.52611512786267733
20220613030000,419.99058331522775,13.760394230237376,4.7088135774771951E-002,0,-24.017690368311484,0,20.027832524030419,0,2.1555991698502006,1,140.93682402596090,2.1112153414707748,4.1047446319019443,0.51997482883854107,0.41000817587306082,0.28098402862737282,0.20468240229759252,29.686302702444230,0.64002581225568478,97.179351429256798,177.67484817715754,212.63141447864706,266.18929916573541,93.427484636588943,75.969999999999999,14.932000000000016,4.0675570842271460,15.539366894270756,0.38836914064316119
20220613033000,416.41659924183978,12.835216378346656,7.1129242473961921E-002,0,-32.059877844555686,0,-17.786098733371475,2,-1.2290131697581008,2,153.04141404009656,2.2805823938549583,4.6629959177385372,0.59929265167228118,0.51778226728212873,0.39644810578598949,0.25138009618307988,41.193810742278572,0.46123433733455671,86.970212765848544,159.00928666267191,190.29350459673768,238.22488670639987,93.435609545355902,72.230999999999995,14.636666666666656,4.6117813628946900,15.119250380622020,0.25737343211846714
20220613040000,415.45350761756623,12.426074883013904,9.3869770339391118E-002,0,-48.651833034437381,0,6.5037826192522425,0,3.2300493663424232,0,161.15003031708162,2.2144625992678146,4.8760120607988080,0.68438971360388401,0.61373233057660626,0.45615035910771201,0.28858365267056701,41.072630552719900,0.46259515751278774,86.813219760165552,158.72225337793230,189.94999906422822,237.79485854154740,93.456171866536465,71.251999999999995,14.350000000000023,4.6867200230981734,14.781686640421640,0.28420455715017312
20220613043000,416.93936512791527,12.386779567970473,0.19190416794491558,0,-76.362842979547949,0,12.886695530008382,0,8.6187103682908166,0,163.23365824197367,2.7100740948709543,7.2454261739207109,0.91114295974954851,0.82155076169840435,0.59774172051267793,0.41238442033075856,76.359502277038914,0.24882299430221988,93.043458259965263,170.11311638822130,203.58195282053728,254.86044701796712,93.458428870442702,72.507000000000005,14.031999999999982,4.3907181514749505,14.474245018853082,0.26806267294815811
20220613050000,417.10633328121787,12.382641296077038,0.16979300193000008,0,-47.272062832606771,0,7.2398603203311902,0,5.2821532479405136,0,160.23510156468873,2.6719354200844867,6.4021015770331742,0.89159616945369535,0.78680961319415987,0.59854305047263556,0.38774518294020388,102.53940606059044,0.18529461725936777,88.474010589029035,161.75870869516237,193.58386055744344,242.34402192136139,93.464384224567596,73.485666666666674,13.821333333333314,4.1768991937357036,14.206637186578746,0.23356362062355801
20220613053000,418.33713569576378,12.320170734444446,0.12582270777630467,0,-35.804353508452628,0,7.5221018126125339,0,2.4787144851516421,0,156.71844309713404,2.3633650593496762,5.4237457512883083,0.72884338581795927,0.63896928910608430,0.48529568195951212,0.33344983921188853,86.122689603949880,0.22061549734889602,92.741511130021209,169.56106073358575,202.92128319892009,254.03336704961168,93.498819632161457,75.378333333333330,13.358666666666693,3.7636588492334115,13.720163471645776,0.19441406557769123
20220613060000,418.59978020100908,11.932469846499561,0.29743765246748194,0,-38.757719912492021,0,17.364680855009414,1,5.4781329554935025,0,165.55294042531801,2.4602094391763472,6.3464718305389516,1.0227451298237729,0.83147021262394827,0.67992436719099780,0.51264244793506653,289.12015490126703,6.5716622234407690E-002,99.893692387970304,182.63752914433337,218.57047610995184,273.62429957343807,93.516725468532982,72.774666666666661,13.410333333333313,4.1756981494892331,13.729790652804923,0.15209036340515736
20220613063000,420.53743438162655,11.729551682426356,0.20721368010485830,0,-23.060255247975785,0,14.175859686396864,0,4.4127872519837776,0,164.12562322742968,2.5353502691435876,6.3802490916186665,0.85049484161139743,0.82889327928102197,0.65144275446209599,0.42787430894530343,282.47085717995043,6.7263576107236753E-002,89.455461775341519,163.55311448154288,195.73130598610828,245.03236877290510,93.490153129383927,71.853333333333339,13.338333333333310,4.2967868800826796,13.578427441254348,0.11623336808162993
20220613070000,423.26402556295244,11.888647891685521,0.34378363988964683,0,-16.429996055965297,0,21.255025742494880,0,8.0914450855038567,0,174.20338013286954,2.4949534692148996,7.5199800151818126,1.1212972773867855,0.92476947862844616,0.76145881761114431,0.55082260227812596,845.95490440889341,2.2459826050983359E-002,96.637829224799376,176.68477287776051,211.44654721402864,264.70598595189762,93.505482785156246,74.203333333333333,13.054333333333318,3.8656826476990434,13.296466916402210,0.12528440288919870
20220613073000,423.91236061758781,11.803963277764669,0.32587679855310914,0,-23.982054659706012,0,40.174061027936837,0,10.776012700427628,0,176.03026038339829,2.6500186159431118,7.7878307169154919,1.1828599285376289,1.0360531300260727,0.78581383277381456,0.53596130776685047,533.99541880554011,3.5580829593070053E-002,92.194691354035214,168.56129978386068,201.72482468460865,252.53554296662594,93.530392148027090,74.960666666666668,12.793999999999983,3.6888110114459072,13.030464917924689,7.8642034593003507E-002
20220613080000,422.64431288252229,10.781132335605202,0.59326504023156623,0,-37.559860873511788,0,108.05013231971259,0,11.442293505649010,0,175.14551930364470,3.3325077447714540,9.5722724636338601,1.4913364749722899,1.1887723559287355,0.97691429835017007,0.72328449366070968,837.56464154037963,2.2684816260935717E-002,98.450301503662089,179.99855026190642,215.41229239229796,269.67062832264861,93.489992918619805,68.031999999999996,12.884333333333359,4.7374889622346323,13.009970316569024,9.7423746122443505E-002
20220613083000,422.70022228801457,9.8242023950535504,0.47276435049309129,0,-20.125553125008093,0,32.728349333109264,0,4.0397455102616204,0,172.33130685671355,3.2236818308204942,8.8774238378061536,1.3749460426589928,1.2086323220042432,0.93756271595799234,0.64559069625105292,1110.9450980195359,1.7102555323274749E-002,92.901012550203490,169.85268020004779,203.27027721962418,254.47026615039616,93.437198957682298,62.460999999999999,12.760999999999967,5.5183260531115375,12.753684421115452,0.16022937796076409
20220613090000,423.95913412767322,9.5750348279642719,0.44070882702109565,0,-36.910921822586360,0,24.458823769062242,0,4.4749185758640184,0,165.06442493442066,3.0612329170399151,8.7936899661784587,1.3094039295635627,1.1380826206639534,0.85325330997578364,0.62295282089953030,544.05090317281758,3.4923202753997920E-002,97.354636571776325,177.99532532201212,213.01494377003311,266.66943232730944,93.401657420572917,62.546333333333330,12.343000000000018,5.3567812328976485,12.346137340969563,0.12921499815087154
20220613093000,424.63089924900061,9.4608034778289962,0.40356933828752589,0,-31.334453057443895,0,28.846007096878797,0,5.5180976389676326,0,162.01946530056199,2.8372365366145669,7.0645770586781476,1.1878334004048157,1.0029221998752988,0.82567364490352946,0.59616869827247065,561.67217222410682,3.3827561591246169E-002,96.494708327118374,176.42310223073048,211.13339428114946,264.31395564001173,93.394608445963541,61.668333333333329,12.374333333333311,5.4936602562675443,12.379732083638544,0.11146041447949361
20220613100000,425.41321455013394,9.4827508361199015,0.26832575202389591,0,-18.003809806299490,0,10.487669803600145,0,2.3712506725432085,0,159.71546435241905,2.2816801142683527,6.5695680621839863,0.98365366822793043,0.73449050681054628,0.59691813053962883,0.48603055961054020,529.84719011084974,3.5859395604277894E-002,106.23165441857867,194.22534512559858,232.43813227002877,290.98495948991041,93.432296876085076,61.792999999999999,12.384999999999991,5.4796333736521445,12.371690328810018,0.10318756216686403
20220613103000,426.32212674118887,9.5795691702468275,0.59546187179766696,0,-40.483873465806695,0,78.122469408027683,0,15.490024437080338,0,171.61935592787418,2.7878051716880381,9.1009542774801453,1.3392591257714388,1.1924230844224453,0.92473582742034333,0.72377262900067341,778.26821681105787,2.4413177346303834E-002,102.92537947197427,188.18042004089563,225.20390083904849,281.92856018345350,93.454831099525762,63.051000000000002,12.236666666666679,5.2477715880543387,12.241570033889275,9.8619201963962941E-002
20220613110000,425.09213185779140,9.1649309932978831,0.41900959622034079,0,-24.647491874761901,0,37.168168286474540,0,3.9160657394832112,0,160.67838173487470,3.0461153561543011,7.5843597726248593,1.1957956957213933,1.0308702133439833,0.82230564525549088,0.60734856949086791,755.13798498733308,2.5160964456474418E-002,98.260437330130529,179.65141799861837,214.99686373195931,269.15056093646274,93.427369423611125,59.675666666666665,12.396000000000015,5.7874828372154052,12.349917040507023,7.8704980373680136E-002
20220613113000,425.80501781385652,9.2983887588179428,0.43762568313541611,0,-20.922909721937987,0,31.699101869187427,0,2.5569516910616192,0,157.27926804678995,2.8567050518982824,7.3538361628976343,1.2204837081529372,1.0237375330675149,0.77291388818297457,0.62068563365176965,949.51237469818727,2.0010271067861917E-002,105.06241167189532,192.08759647381385,229.87979312246651,287.78222246072954,93.431296625651044,60.587000000000003,12.386000000000024,5.6529689449689204,12.338092612372520,7.9852944106972995E-002
20220613120000,425.21880397004190,9.4441551536148314,0.39153157073432565,0,-57.131599255042943,0,50.868464718926944,0,2.2781834087370161,0,151.02719949532869,3.2349268231826831,8.5005240367734469,1.2863873016910272,1.0587289991971636,0.78503791836212578,0.58655349415590197,293.53016187792826,6.4729293502388416E-002,99.171867943339933,181.31780384545004,216.99110198973298,271.64711059027502,93.458971666015628,63.412999999999997,11.934333333333313,5.0938844764354965,11.917713973151251,0.34719824123735787
20220613123000,423.74271816977244,9.6155819938558516,0.57549122086907545,0,-46.649275339321882,0,58.539426832683354,0,-0.22798935253368705,2,152.77728990532273,3.6275268438991835,8.8439020958089785,1.4494458678830446,1.2429006530061266,0.98936350823367891,0.71072723327848386,639.49804038592742,2.9710802535897977E-002,96.102028567362865,175.70515839111150,210.27419887054077,263.23834494176606,93.446804012720946,66.158666666666662,11.562999999999988,4.5974522690654105,11.544001305098050,0.11195274102596882
20220613130000,423.57630300040000,9.8009140534797812,0.48430858699661800,0,-3.4660945735973145,2,6.3581042947277080,2,-0.65868104554851925,0,159.98581187549351,3.3577186477177978,8.9429183927631577,1.4055110854258270,1.1541583000189541,0.93074229555341459,0.65175967792262313,6640.3493862820342,2.8612952263101020E-003,94.158890145483170,172.15248162370165,206.02255214625839,257.91578776171832,93.501238153197590,67.742999999999995,11.502666666666642,4.3647560002908543,11.460063590795698,0.10212240533186930
20220613133000,424.53923022469917,10.934058608520882,0.64231687425520989,0,-42.819842873241306,0,9.9090058064373796,1,1.8177715792133851,0,163.08183778849980,3.4358307419397547,10.118127844000268,1.5621994955523719,1.2632113561283660,0.99906638874833587,0.74898518154545668,815.85358178424929,2.3288492474896689E-002,99.439286941404418,181.80673106282691,217.57622299517939,272.37961265610954,93.500002965711801,82.618333333333339,10.163333333333355,2.1514164688989799,10.337688612196303,0.39470600330062966
20220613140000,423.47598521456428,11.482140481169507,0.58657834652027052,0,-55.037979766667739,0,0.99542518244855838,2,2.9742644007504784,1,138.48145393601709,3.1511555435233030,9.3874012164328686,1.5333650292314340,1.1837812480571355,0.90250273964678873,0.71481590841592735,551.72751349252246,3.4437289305597599E-002,103.90858819084258,189.97803915732442,227.35519180308518,284.62172118895495,93.479621297960065,91.893333333333331,9.3036666666666861,0.94714089818221059,9.5958800803290956,0.20404412951875592
20220613153000,417.93631651291219,11.719404487472360,0.38529719825871189,0,10.019875247501353,2,8.8498019622589208,2,-1.6739233860705249,2,125.44038331036404,3.2693751678654590,9.7618398829394106,1.4550573037692416,1.0884490027611580,0.74464074742152431,0.58058732614699315,-1623.4823398311250,-1.1703237869514728E-002,102.61042886604284,187.60458988490919,224.51477921140668,281.06586167979310,93.442576747829875,87.173333333333332,10.389000000000010,1.6117474244806658,13.634925225152131,0.75392923277125501
20220613160000,412.26137026854252,12.538294143952834,0.23699233296360697,1,-10.516587841697918,1,56.699589893038464,0,-6.5449568506675790,0,151.25944907505061,2.1107874909515867,8.9782313595759096,1.6051352389689864,0.94328816574306595,0.63849756776641176,0.45611038429850947,750.29643521533524,2.5323324366517876E-002,95.671695360086687,174.91837204047357,209.33261655686502,262.05959561726598,93.479323946397571,87.400000000000006,11.371333333333325,1.6901669636322914,11.568947734408880,0.35189840195218619
20220613163000,408.56884648953445,13.056769363627280,0.17113812864920955,0,5.8884241478269068,0,81.139875801994421,0,-11.072070559895213,0,134.98694524380960,2.1225371116594922,5.0843482433319291,0.82564754076481595,0.59412036723087580,0.47559045193348687,0.38821406227607269,-826.27760672008969,-2.2994693121868002E-002,106.44503482918117,194.61547257037142,232.90501518148216,291.56944149270834,93.469731538411466,86.170000000000002,12.197999999999979,1.9592474694574207,12.436479772779649,0.24266868714340620
20220613170000,403.17707763716135,13.690099425423560,0.32062898991177707,1,19.618740759017026,2,176.98310216236698,0,-11.347250764687935,1,124.40725344682997,2.0968306858713830,4.8523922884262225,0.90460334199595271,0.71507208319766868,0.59345559117573354,0.53274805970523587,-640.78383823754393,-2.9651184793079224E-002,114.85815094251285,209.99733205130411,251.31317239843031,314.61426993692760,93.423994563802083,83.100333333333339,13.467666666666673,2.6016980226597846,13.783299818250953,0.43296403598323141
20220613173000,399.30461721291687,13.998868036243302,0.28662480275201446,0,-23.276089947255432,0,9.6453353673319988,2,-3.6297084307466050,1,135.70522181205976,2.8179112595274933,5.8074851371628311,0.96927915516416507,0.90184091319362969,0.58790439190868327,0.50410630763637987,457.74621384414939,4.1507716340105007E-002,110.72029683128774,202.43201503510298,242.25942013896423,303.28004646540251,93.461294432671338,82.094999999999999,14.004000000000019,2.8542946840957235,14.469650361643687,0.13252308513605468
20220613180000,396.98007928598014,14.777231557204718,0.25615699330952368,0,-34.845208869484189,0,33.759365632134248,0,-7.4922148189377511,0,137.61935766924063,3.2870633454328555,7.1506042461747938,1.0804251197146970,0.86975514910536622,0.62221111345360647,0.47691188329424195,258.83106004275982,7.3406955088238371E-002,101.21740620081272,185.05770017107656,221.46680270865838,277.25015678440155,93.405994196292170,85.670000000000002,14.172000000000025,2.3094136521941868,14.839698280221342,0.14194270041020601
20220613183000,397.90329128876687,14.323563276075186,0.31281117153337690,0,-60.496234886053038,0,59.143541642400862,0,-9.3111860844970806,0,160.99295462989889,2.9444494798344878,7.0353046429202681,1.0309530286844708,0.95576686464948579,0.71963310015166837,0.52692095916535198,201.05215026998198,9.4502844035669026E-002,97.580350576552618,178.40800251053278,213.50881296546771,267.28769795534288,93.403132182725699,83.393333333333331,14.105999999999995,2.6648951434070636,14.638538350423232,0.18334982733234984
20220613190000,396.10070614376286,14.450243323422818,0.26633412521437722,0,-22.778569452245829,0,82.257284318361613,0,-10.161519790996458,0,162.84745105983353,3.0392241154042501,7.4502352411036856,1.0907755599722495,0.92615118170839927,0.70906642312239598,0.48657569717216897,420.32480121372254,4.5203138014068958E-002,92.645791148716967,169.38605407943936,202.71184493123002,253.77117519131264,93.357284785373281,82.549999999999997,14.391333333333307,2.8524510819611781,14.892025181240570,0.13886587111920623
20220613193000,396.21950042128680,14.574968599152138,0.43892465865500363,0,-28.940204417946799,0,69.215308709634996,0,-11.158770891472042,0,156.62336242353516,3.3958222629923469,8.1535106998824762,1.2563828509198833,1.0388493575186406,0.84203778338806157,0.62497789960989336,700.86701697202773,2.7109279706278872E-002,98.646428103443270,180.35713223767718,215.84142343418105,270.20784946454432,93.318816603949671,82.286666666666662,14.567333333333352,2.9286276289911757,15.092043770684143,0.10900370396738283
20220613200000,396.45504016860809,15.149316640649880,0.29581022414682673,0,-9.3821591327407692,1,55.665778279763281,0,-8.9020951201457841,0,145.67291595210074,3.2164287599398067,7.4488124905061177,1.1148548866152570,0.87015343258416589,0.71012149871750196,0.51362038439815449,1199.4892218968380,1.5840075636489623E-002,96.627906913112142,176.66663172743722,211.42483689040611,264.67880720296296,93.253492090711802,83.543333333333337,14.920666666666648,2.7835863575513828,15.510385877821136,0.14098693160689080
20220613203000,397.98859710885063,15.748222068065241,0.38153659836935960,0,-20.483072924786562,0,9.9459600972176165,1,-6.9580603917282691,0,145.11966778667409,3.1207578739772628,8.1444193733945056,1.2553208519040797,0.95417103989624352,0.76851379050300206,0.58366771997850808,806.28826392311998,2.3564773109250738E-002,100.47687234966223,183.70376811001529,219.84649183064150,275.22171983820778,93.244014263020830,85.436666666666667,15.173333333333346,2.5037183117960988,15.838914258321154,0.11963518278833894
20220613230000,399.32107192037410,16.795316923842478,0.66602523555712256,0,75.954009689638667,0,51.858513466000318,0,-13.829608658875168,0,141.34271374703246,3.5257241622799929,10.309000511894689,1.5004964292106078,1.3282384466753581,0.96373290431701097,0.77272243977581145,-504.80592092239124,-3.7638227311761377E-002,104.93210122043196,191.84934740815194,229.59466984052963,287.42528194570406,93.282148587932426,84.553333333333327,16.348000000000013,2.8629071595860522,16.888614231628026,0.31430950686934589
20220613233000,399.05329054734597,17.061022238182353,0.76035954902859149,0,123.91021954791940,0,66.462117558413354,0,-14.270772003712539,0,146.55487568461695,4.3939733240469687,12.336061279685383,1.7615245167092206,1.4124996341396434,1.1313053022006156,0.82685406975821496,-379.05754304140544,-5.0124315816410442E-002,97.439295751203915,178.15010930266618,213.20018066249574,266.90132693566335,93.250535554948812,81.980000000000004,17.076333333333309,3.4979994407786923,17.453374128938322,0.23820876036077920
20220614000000,399.56503007620609,17.318345306733491,0.67438375758003954,0,65.257576361440812,0,33.330082861039116,1,-13.410133248874642,0,146.21240079372868,3.8780775191099344,10.051951755952738,1.6628712622000696,1.3549342721321882,1.0394944753314939,0.77919582655311204,-602.26688828664362,-3.1547475661582641E-002,99.429314583204899,181.78849841151768,217.55440316824632,272.35229682202419,93.230236421223964,81.766666666666666,17.350666666666655,3.6013840568956268,17.753582348293776,0.17980140237750195
